GFSSGP_prec_cloud_102.txt.gz
Cloud_Cover
4 0 0 0 0 0 4 4 5 5 0 0 0 0 0 0 0 0 0 0 0 0 0 1 54 0 0 0 0 0 0 0 0 0 20 1 0 1 4 4 37 15 14 0 2 2 8 48 5
2 2 3 4 4 5 5 5 9 45 5 0 0 0 0 0 0 0 0 0 0 0 0 0 98 0 0 0 0 0 0 0 1 30 20 0 0 10 9 29 23 26 11 0 0 2 16 40 45
71 9 5 5 5 5 7 5 19 58 5 2 0 0 0 0 0 0 0 0 0 0 0 0 61 0 0 0 0 0 0 0 13 34 13 0 72 1 24 2 42 22 4 67 2 20 23 4 31
87 33 5 5 80 100 38 14 5 7 6 5 3 0 0 0 0 0 0 0 0 0 0 42 0 0 0 0 0 0 0 6 20 32 0 2 7 4 65 100 36 100 100 100 100 33 3 0 5
100 78 16 54 87 100 13 55 65 99 98 5 5 0 0 0 0 0 0 0 0 0 0 1 1 0 0 0 0 0 0 4 99 61 0 5 61 44 100 100 100 100 100 100 100 98 16 11 5
100 41 6 15 100 74 44 26 95 100 77 45 5 2 0 0 0 0 0 0 0 0 0 0 26 1 0 0 0 0 0 0 8 94 24 2 49 92 71 94 97 100 100 100 100 100 100 100 100
93 6 5 5 73 79 100 32 92 94 11 28 13 5 0 0 0 0 0 3 0 0 0 0 13 43 42 0 0 0 0 0 0 0 0 3 0 6 35 8 100 100 100 100 100 100 100 100 100
99 5 5 44 100 100 100 100 100 100 21 53 6 5 1 0 0 5 67 6 0 0 0 0 3 26 62 70 11 0 0 0 0 0 0 3 6 46 42 3 93 100 78 100 100 100 100 100 100
92 5 5 72 100 100 100 100 100 99 5 16 8 5 5 1 0 95 93 4 0 0 0 0 0 38 73 100 85 53 17 0 6 3 1 63 3 24 61 67 2 100 100 100 100 100 100 100 100
100 24 5 12 100 100 100 100 89 92 51 54 8 52 8 5 6 100 17 4 0 0 0 0 0 0 73 100 83 45 86 33 100 74 12 2 20 40 14 11 2 26 100 100 100 100 100 100 100
37 28 66 5 100 100 100 100 9 95 99 62 5 46 6 4 21 100 72 5 4 5 4 1 4 0 1 1 100 89 95 83 56 75 58 57 38 46 96 47 27 38 72 100 100 100 100 100 100
17 5 5 3 100 100 100 100 27 100 100 65 7 5 5 5 5 43 24 6 5 5 4 3 2 2 12 1 35 65 52 100 94 74 100 72 88 93 59 100 36 37 100 100 100 100 100 100 100
5 35 5 60 100 100 100 100 100 100 100 78 5 5 19 5 5 5 6 5 5 5 5 13 14 0 0 5 7 82 100 100 100 77 56 94 97 99 40 100 100 100 100 100 100 100 100 100 100
29 11 12 10 90 100 100 100 94 98 100 91 5 5 5 5 6 62 90 6 7 5 2 5 6 6 0 0 16 0 2 100 100 99 91 99 99 100 100 100 99 99 96 100 100 100 100 100 100
0 9 9 52 91 100 100 100 100 100 100 99 5 28 6 33 24 76 17 19 22 5 5 0 14 11 0 0 17 1 0 58 100 100 100 100 100 100 76 75 86 74 89 100 100 100 100 100 100
18 1 25 53 98 100 100 100 100 100 100 87 100 100 100 99 5 9 5 41 28 5 5 5 9 1 24 1 11 0 0 80 58 51 98 100 100 72 86 60 27 100 100 100 100 100 100 100 100
5 5 35 95 88 100 100 99 100 100 100 100 100 100 94 32 100 100 90 4 5 5 3 5 5 4 93 73 6 10 51 100 83 72 78 97 69 84 94 94 100 100 100 100 100 100 100 100 100
6 87 98 100 94 37 100 100 100 100 100 100 100 100 59 82 97 74 7 60 3 4 5 1 0 22 96 100 29 22 100 100 100 100 84 45 50 98 72 100 100 100 100 100 100 100 100 100 100
100 100 100 6 24 100 100 100 100 100 100 100 100 100 100 65 76 5 5 4 5 5 5 5 2 5 100 100 75 93 100 100 100 75 100 88 69 36 55 100 100 100 100 100 100 100 100 100 100
100 99 81 44 5 13 90 100 100 95 98 100 100 100 100 42 0 4 3 5 6 46 100 14 0 0 16 0 0 5 84 100 97 100 99 73 68 59 52 100 100 100 100 100 100 100 100 100 100
100 100 100 98 25 27 5 40 55 79 51 47 57 5 12 76 97 100 100 100 92 77 5 5 0 0 23 0 0 35 79 81 100 100 87 100 96 90 88 100 100 100 100 100 100 100 100 100 100
100 100 100 100 96 100 100 36 5 8 5 5 5 7 53 85 100 23 5 17 6 5 1 4 0 2 7 5 0 8 5 20 18 94 75 100 66 88 100 100 100 100 100 100 100 100 100 100 100
100 100 100 100 96 53 88 83 98 98 48 26 5 61 100 100 100 94 6 5 5 4 5 1 0 5 3 18 1 0 4 5 26 51 100 100 98 81 99 98 100 100 100 100 100 100 100 100 100
100 100 100 100 100 57 68 20 5 84 96 6 5 48 41 42 5 18 5 5 1 5 4 0 0 5 3 40 25 2 5 3 15 21 18 78 100 98 100 97 100 100 100 100 100 100 100 100 100
100 100 100 97 74 100 100 91 25 28 91 5 10 36 10 5 5 5 6 5 4 5 0 0 0 0 27 100 47 45 5 5 5 7 0 18 100 100 94 81 96 100 100 100 100 100 100 100 100
100 100 100 79 98 100 100 100 63 6 36 19 60 83 28 18 7 5 5 5 5 0 0 0 0 0 100 100 85 63 8 15 14 51 0 14 58 99 68 56 55 100 100 100 100 100 100 100 99
100 100 100 98 90 100 100 100 95 6 82 100 56 67 62 5 6 74 81 6 4 0 0 0 3 84 100 100 100 84 20 30 23 52 5 38 82 84 100 100 100 100 100 100 100 100 100 100 100
100 100 100 100 100 100 100 100 85 97 57 14 38 27 55 9 39 99 77 3 0 0 0 70 99 84 100 100 100 92 80 50 40 26 11 69 78 60 78 100 100 100 100 98 99 100 100 100 100
100 100 100 100 100 100 100 100 100 98 11 23 96 94 93 67 100 100 100 59 0 3 60 100 100 100 100 100 100 90 90 89 44 27 39 63 75 59 88 100 100 100 100 100 100 100 100 100 100
100 100 100 100 100 100 100 100 100 100 77 78 99 100 98 31 70 100 100 100 84 25 85 100 100 100 100 100 100 99 100 99 42 26 51 99 99 42 100 100 90 100 100 100 100 100 100 100 100

GFSSGP_prec_cloud_105.txt.gz
Cloud_Cover
5 5 2 0 0 0 0 0 0 0 0 0 0 5 0 0 0 3 0 0 0 0 0 1 0 0 0 0 0 0 0 0 0 0 22 0 0 0 0 0 4 0 0 0 5 0 0 7 5
3 5 2 0 0 0 3 0 0 0 0 0 3 5 5 0 0 0 0 0 0 0 0 0 0 0 0 0 0 0 0 0 0 0 6 0 0 0 3 1 3 0 1 0 0 0 18 14 5
5 5 3 2 0 36 96 1 5 3 2 5 56 70 5 2 0 0 0 0 0 0 0 0 0 0 0 0 0 0 0 0 0 0 0 0 0 0 0 3 2 5 54 6 100 88 88 32 5
56 13 5 5 5 97 99 18 8 5 5 7 83 86 81 5 5 0 0 0 0 0 0 40 0 0 0 0 0 0 3 0 0 0 2 0 0 5 2 4 21 71 100 100 100 100 100 100 100
26 20 22 22 87 100 100 49 5 16 33 97 100 71 29 38 5 2 0 0 0 0 0 0 0 0 0 0 0 0 8 1 54 58 23 0 0 33 100 99 10 99 95 100 100 100 100 100 100
5 33 5 31 100 100 100 92 47 8 100 100 100 100 100 40 5 5 0 0 0 0 0 0 13 0 0 0 0 0 0 2 100 100 16 11 96 75 89 89 30 93 100 100 100 100 100 100 100
89 31 14 96 100 100 100 50 5 5 10 100 22 100 95 6 8 5 2 0 0 0 4 0 9 3 40 0 0 0 0 0 2 39 0 0 1 1 11 6 4 6 96 100 100 100 100 100 100
24 30 63 100 100 100 100 5 5 5 17 8 100 92 96 100 35 8 2 0 0 3 2 0 2 16 21 4 7 0 0 0 0 0 0 0 2 0 11 76 47 0 41 96 100 100 100 100 100
4 0 16 100 100 100 100 75 22 8 33 55 100 100 92 100 7 7 3 0 0 4 5 4 0 2 1 100 19 53 26 1 9 3 2 67 0 0 0 22 14 0 12 100 100 95 100 100 100
0 0 2 93 100 79 100 100 92 43 5 5 100 100 100 100 62 5 5 2 0 1 1 0 0 0 1 100 75 38 94 19 19 6 0 0 7 9 4 3 0 32 22 34 100 100 100 100 100
0 0 4 84 100 26 100 59 5 4 41 70 86 100 100 100 96 18 5 5 4 0 4 0 5 5 16 8 38 10 18 93 100 45 43 6 7 6 26 5 4 12 0 4 96 100 100 100 100
1 0 0 3 37 74 100 97 5 0 13 49 100 93 100 100 100 63 56 7 5 5 4 5 5 5 2 1 16 66 32 33 34 80 48 21 13 6 5 44 20 22 0 44 40 100 100 100 100
0 0 0 0 0 0 70 2 5 5 7 68 84 6 100 100 100 97 89 99 67 5 5 5 5 5 1 0 10 1 11 58 20 81 90 38 60 69 31 29 32 46 31 37 49 100 100 100 100
1 2 0 0 0 1 46 4 28 68 55 79 100 98 100 100 100 100 83 100 94 18 5 5 4 0 0 0 6 2 23 77 45 35 99 60 45 48 74 35 82 86 87 22 88 100 100 100 100
2 1 4 0 0 0 5 3 9 100 99 93 100 89 100 100 100 98 87 70 100 100 5 5 0 6 4 3 5 4 8 18 35 97 95 100 76 55 97 74 66 100 41 29 100 97 100 100 100
2 3 0 5 0 2 3 9 100 100 100 84 100 36 32 100 100 94 94 100 100 100 1 1 5 6 2 5 5 4 0 11 31 100 100 68 65 77 62 98 71 92 18 56 89 100 100 100 100
4 0 1 0 4 4 5 23 100 100 11 94 100 88 7 100 100 100 100 100 100 90 5 5 16 8 11 5 4 0 2 2 5 84 90 90 53 44 82 34 63 100 100 92 100 100 100 100 100
5 20 5 5 37 5 6 5 65 96 11 76 100 92 75 100 100 100 100 100 100 9 23 51 74 9 22 14 0 0 20 39 1 8 61 100 56 18 99 98 97 92 91 100 100 91 100 100 100
100 100 100 100 88 46 56 10 5 98 6 100 100 100 100 100 100 100 100 100 81 20 100 43 5 62 19 62 0 1 31 47 100 89 78 38 50 72 98 73 97 94 100 100 100 100 100 100 100
100 100 90 85 100 4 5 93 52 24 58 100 100 100 100 99 100 100 86 17 48 99 93 92 34 5 8 60 36 4 17 94 18 38 83 20 17 16 96 98 94 100 100 100 100 100 100 100 100
100 83 72 100 100 7 4 88 98 35 100 96 100 100 100 100 91 89 27 37 97 99 74 100 100 100 96 36 2 10 47 93 64 87 83 46 12 69 100 97 89 100 100 100 100 100 100 100 100
100 79 100 100 100 76 100 81 100 8 8 100 100 100 100 100 100 100 99 100 80 72 25 8 5 5 5 6 0 4 0 24 12 49 98 78 90 96 74 83 32 100 100 100 100 100 100 100 100
79 100 100 100 100 100 100 100 100 100 100 93 76 85 100 100 85 5 17 43 5 21 5 25 5 5 5 1 1 2 6 7 1 12 52 94 88 100 100 48 87 82 100 100 100 100 100 100 100
100 100 100 100 100 100 100 100 100 100 100 100 98 72 31 17 26 66 53 58 96 32 33 13 3 5 2 5 5 0 19 0 0 0 42 85 10 100 100 91 98 75 100 100 100 100 100 100 100
100 100 100 100 100 100 100 100 100 100 100 100 93 100 100 100 100 100 98 53 78 5 5 4 13 5 2 0 5 15 21 7 0 0 5 18 67 100 100 47 78 95 100 100 100 100 100 100 100
100 100 100 100 100 100 100 100 100 100 100 100 100 100 100 100 64 59 90 100 96 16 19 5 34 5 1 0 1 36 38 26 6 0 5 5 32 94 87 51 81 99 100 100 100 100 100 100 100
100 100 100 100 100 100 100 100 100 100 83 97 100 100 100 71 20 22 35 96 70 17 60 5 5 5 0 8 27 92 100 40 21 3 5 5 32 82 100 43 88 67 82 100 100 100 100 100 100
100 100 100 100 100 100 100 100 100 100 100 100 100 100 91 94 45 63 78 65 19 11 6 1 14 8 10 49 99 100 100 92 48 50 5 7 48 100 99 81 50 95 100 98 100 100 100 100 100
100 100 100 100 100 100 100 100 100 100 100 100 100 100 85 92 82 97 100 99 22 38 96 85 33 55 83 62 100 100 100 100 98 67 12 50 85 100 100 83 90 90 86 100 100 100 100 100 100
100 100 100 100 100 100 100 100 100 100 100 88 97 100 81 73 65 72 100 100 100 96 100 100 100 100 99 100 100 100 100 100 100 73 64 100 100 100 100 84 42 100 100 100 100 95 100 100 100

GFSSGP_prec_cloud_108.txt.gz
Cloud_Cover
0 0 0 0 0 0 0 4 0 0 0 0 0 0 0 0 0 0 0 0 0 0 0 0 0 0 0 0 0 0 0 0 0 0 0 0 0 0 0 0 0 5 0 4 5 0 0 0 0
0 0 0 0 0 0 2 22 5 0 0 0 0 0 0 0 0 0 0 0 0 0 0 0 0 0 0 0 0 0 3 0 0 0 0 0 0 0 0 0 0 0 0 0 7 73 58 5 18
100 100 45 61 54 2 16 100 5 0 0 82 5 4 0 0 0 0 5 1 0 0 0 0 0 0 0 0 0 0 3 8 0 0 0 0 0 0 0 0 1 1 2 5 19 80 100 100 100
100 100 99 100 100 46 44 100 7 0 0 5 5 5 2 0 4 3 5 5 2 2 0 24 0 0 0 0 0 0 0 54 0 0 0 0 0 0 0 0 0 98 5 5 96 100 100 100 100
99 13 42 42 45 100 100 100 2 36 5 85 99 25 8 5 1 1 35 82 100 18 0 0 0 0 0 0 0 7 11 0 0 0 0 0 0 0 2 5 4 100 70 6 100 100 100 100 100
100 83 24 59 93 93 100 83 77 0 13 77 100 100 93 5 6 4 71 100 100 24 5 4 5 0 0 0 0 0 7 0 38 98 25 2 0 0 4 96 9 52 12 64 100 100 100 100 100
99 100 100 100 100 100 100 100 5 16 96 26 100 81 90 9 5 5 96 78 61 6 5 21 0 0 0 0 0 0 0 0 83 100 50 0 0 0 0 5 10 45 5 27 100 100 100 100 100
100 100 100 100 100 72 96 100 8 4 78 100 36 51 68 5 27 100 33 87 100 100 5 68 5 5 5 0 7 0 0 0 0 6 0 0 0 0 0 0 2 0 0 1 91 100 100 100 100
5 4 20 40 56 90 100 100 61 97 100 100 19 26 11 88 52 100 73 100 100 100 5 34 9 0 5 0 0 43 4 1 8 1 2 67 0 0 0 0 0 0 1 0 5 43 100 100 100
0 0 0 0 2 5 39 100 1 59 99 89 40 24 59 13 94 100 100 100 100 100 5 9 53 5 1 0 0 0 0 0 0 0 0 0 0 0 3 24 0 4 1 2 70 23 28 100 100
0 0 0 0 5 8 5 7 0 67 8 28 4 24 100 100 100 98 100 100 100 100 17 20 12 5 3 2 0 0 0 0 45 0 0 0 0 0 0 100 95 5 5 6 35 6 4 100 100
0 2 0 0 5 5 3 3 0 94 0 3 2 0 37 100 100 100 100 91 100 100 100 57 25 5 2 0 0 0 0 0 0 0 1 0 0 0 0 7 11 5 23 4 34 0 2 100 100
0 14 5 0 5 5 0 0 0 10 57 67 100 66 7 67 100 100 100 87 76 100 100 100 17 5 3 1 0 0 0 6 0 0 0 0 0 0 0 3 4 4 33 4 2 0 21 34 100
92 8 5 5 3 1 2 0 0 0 0 0 16 27 2 0 95 100 100 100 100 100 100 100 59 8 0 0 0 1 4 0 0 0 80 0 0 0 0 3 0 2 3 0 0 7 39 80 100
52 94 5 4 5 0 5 0 0 1 0 0 0 1 46 6 90 100 100 100 100 100 100 100 47 22 43 4 5 5 5 2 0 0 98 100 12 0 0 1 0 0 0 0 5 9 36 99 97
5 41 5 3 5 4 58 0 5 36 60 0 0 0 5 5 30 100 100 100 100 100 100 21 61 16 28 5 5 1 0 3 0 0 40 100 68 16 9 51 100 10 0 16 28 4 97 99 100
70 16 1 36 5 27 49 1 5 83 92 5 0 0 4 44 55 71 100 100 100 100 100 5 91 100 100 63 5 2 1 1 0 0 0 100 71 2 32 13 9 25 43 20 23 54 64 100 100
0 4 51 5 44 57 26 1 5 20 66 5 4 4 2 3 42 100 100 100 100 100 100 97 100 100 100 70 17 2 5 0 0 3 3 4 44 2 0 10 20 60 91 100 77 88 94 100 100
6 100 100 12 70 100 85 72 5 46 96 2 0 0 53 10 87 100 100 100 100 100 100 100 100 100 100 69 5 8 5 5 31 31 5 2 37 0 0 1 86 100 79 100 100 100 100 100 100
5 100 98 93 86 100 100 97 100 27 5 5 3 3 17 100 96 67 40 93 100 100 100 100 100 100 100 6 5 4 29 100 9 5 4 5 5 0 0 3 97 46 100 100 100 100 100 100 100
6 45 100 26 100 100 100 92 89 54 71 98 68 5 5 45 100 96 77 100 100 100 100 100 100 100 100 64 5 24 58 11 11 9 1 5 3 1 0 5 93 41 100 100 100 100 100 100 100
95 99 100 100 100 100 100 42 5 96 99 40 8 81 74 5 42 100 100 100 99 85 100 100 100 100 100 100 14 14 5 20 8 5 53 22 1 0 0 6 100 80 99 71 100 100 100 100 100
7 100 100 100 100 43 100 42 60 100 94 64 15 36 5 96 59 78 98 100 100 100 100 100 100 100 100 100 100 11 25 6 5 5 8 28 5 0 0 100 92 83 100 57 98 100 100 100 100
100 100 100 90 100 99 4 21 5 100 100 100 79 74 63 74 74 50 83 100 100 100 100 100 81 87 33 42 59 5 4 4 5 5 12 5 26 76 81 36 94 100 100 68 97 100 100 100 100
100 100 84 100 100 17 2 56 36 100 100 96 52 96 100 100 100 100 100 100 100 99 56 12 5 5 6 54 23 4 5 8 5 5 34 9 1 8 97 98 75 96 100 57 76 100 100 100 100
5 80 100 56 34 36 99 92 99 100 100 100 52 98 100 100 100 100 100 100 100 100 100 96 64 5 16 5 5 4 5 42 6 5 59 63 3 0 5 7 62 100 100 99 68 100 100 100 100
84 100 100 100 100 100 100 100 100 91 100 100 92 100 100 100 100 100 100 100 100 100 100 100 99 30 28 8 71 11 3 60 6 56 5 7 4 3 5 97 69 73 83 87 87 97 100 100 100
100 100 100 100 100 100 100 100 100 100 100 100 92 100 100 100 100 100 100 100 100 100 100 71 40 43 5 5 13 3 0 67 72 100 0 35 3 4 20 8 80 71 80 100 100 100 100 100 100
100 100 100 100 100 100 100 100 100 100 100 100 100 100 70 92 100 100 93 100 100 100 100 100 62 19 11 5 11 4 0 100 100 100 53 96 1 5 33 55 48 97 100 100 100 100 100 100 100
100 100 100 100 100 100 100 100 100 100 100 100 100 100 33 5 69 93 77 96 100 100 100 100 91 46 26 5 8 7 88 100 100 100 78 96 2 71 35 100 98 87 100 100 100 100 100 100 100

GFSSGP_prec_cloud_111.txt.gz
Cloud_Cover
0 0 0 0 0 0 0 2 0 0 0 0 0 0 0 0 0 0 0 0 0 0 0 0 0 0 0 0 0 0 0 0 0 0 0 0 0 0 0 0 0 0 0 0 0 0 0 17 2
0 0 0 0 0 0 13 83 40 3 0 0 0 0 0 0 0 0 0 0 0 0 0 0 0 0 0 0 0 0 0 0 0 0 0 0 0 0 0 0 0 0 1 0 0 0 0 1 5
43 2 0 0 0 56 100 100 100 12 2 0 0 1 0 0 0 0 0 0 0 0 0 0 2 2 0 0 0 0 2 0 0 0 0 0 0 0 0 0 0 0 0 0 4 5 4 23 49
96 22 32 2 15 45 97 100 100 2 5 0 1 23 0 0 0 5 1 0 5 0 0 2 19 52 3 0 0 3 85 41 0 0 0 0 0 0 0 0 0 0 0 0 92 100 3 100 100
100 79 5 1 3 34 96 100 87 4 1 0 2 100 1 1 25 55 93 100 16 1 5 5 42 100 10 0 0 0 61 95 0 0 0 0 0 0 0 0 2 0 0 4 72 19 41 100 100
5 20 61 74 90 98 42 100 100 5 4 2 2 100 5 2 9 100 100 100 99 6 5 5 46 64 4 0 0 0 0 0 4 5 0 0 0 0 0 0 2 0 30 81 5 5 100 100 100
13 4 5 1 28 85 100 100 100 99 69 41 97 100 16 0 3 5 97 100 100 18 5 20 59 98 100 4 5 12 6 0 70 69 76 0 0 0 0 0 3 2 5 5 4 2 100 98 100
1 1 4 5 5 100 100 100 100 100 100 100 12 16 100 3 2 24 100 97 100 98 57 36 80 100 100 16 0 0 0 0 0 10 85 0 0 0 0 0 0 4 4 0 0 0 0 85 100
2 0 0 3 5 99 100 100 100 100 100 100 100 23 8 89 4 2 95 43 100 100 100 92 95 100 100 89 6 1 0 0 0 0 0 52 0 0 0 0 0 0 1 1 0 18 8 28 100
2 0 2 0 1 5 20 96 95 55 100 100 81 23 88 100 100 52 79 100 91 100 100 100 100 100 100 97 11 20 9 37 23 4 8 13 4 1 0 0 0 0 10 89 24 5 5 5 80
2 0 0 0 0 0 0 0 100 2 0 2 19 0 6 100 40 89 100 100 100 100 100 96 10 100 100 100 95 16 27 26 22 4 12 10 5 3 0 1 0 2 11 100 59 62 20 11 28
0 0 0 3 0 0 0 0 0 0 0 0 4 17 0 0 95 13 97 100 100 100 100 75 99 100 100 100 100 8 0 3 3 0 0 8 19 10 0 23 12 2 7 76 61 43 19 84 6
0 0 0 2 0 0 0 0 0 0 0 2 1 5 0 0 81 100 100 99 78 100 100 85 31 100 100 100 100 26 0 0 0 0 0 0 4 1 0 9 14 6 16 11 18 7 11 28 3
0 0 0 0 0 0 0 2 5 0 0 0 21 5 4 1 59 100 100 100 72 27 100 100 19 100 100 100 100 38 5 5 1 0 2 0 5 3 2 4 3 11 5 6 3 6 24 22 10
0 0 0 0 0 0 4 3 0 5 2 4 0 5 5 2 0 16 100 100 100 5 25 100 100 69 100 100 100 95 93 56 5 5 0 5 0 1 5 7 6 1 8 11 17 38 37 43 30
0 0 0 0 0 0 90 1 0 1 5 18 5 0 0 4 0 0 2 5 100 100 47 97 92 100 100 100 100 100 100 100 24 4 5 0 4 4 5 7 3 15 21 10 29 80 100 97 90
0 0 0 0 0 0 29 1 91 46 3 19 4 0 0 2 0 4 0 8 100 100 100 11 33 100 100 100 100 100 100 100 99 6 5 4 65 38 5 0 3 90 54 33 33 82 84 100 100
0 0 0 0 0 0 2 0 5 100 44 2 50 0 0 0 0 3 23 17 100 100 94 34 4 85 100 100 100 100 100 100 75 5 3 4 7 95 7 60 30 53 80 36 86 94 99 100 82
0 30 4 0 0 2 0 0 24 97 100 6 6 7 0 0 5 5 78 100 100 78 82 5 5 65 100 100 100 100 5 100 100 97 4 4 4 30 5 24 12 13 26 100 100 100 100 100 94
0 0 0 0 21 100 97 40 5 43 30 93 13 5 4 0 4 68 100 100 100 100 100 96 99 100 100 100 32 10 88 100 100 37 5 5 5 1 5 18 15 16 37 89 100 100 100 100 92
0 0 0 3 32 100 100 14 5 50 87 76 57 32 19 8 5 21 97 43 67 79 79 92 100 100 100 100 94 32 75 100 90 27 30 51 5 2 5 5 6 52 100 46 97 100 100 100 100
0 0 0 3 96 97 94 64 99 98 79 84 99 100 100 21 2 0 0 5 85 99 100 99 27 86 100 100 100 81 80 99 100 26 7 78 5 5 5 5 12 13 18 32 100 100 83 100 100
0 0 31 95 100 39 92 100 0 1 97 75 100 100 79 5 2 5 6 5 5 14 98 100 100 100 100 100 100 100 100 100 100 79 20 11 7 31 59 23 32 37 21 76 100 100 100 100 100
14 91 72 60 63 99 21 100 4 81 100 94 84 83 100 98 5 17 8 9 68 79 37 100 100 100 100 100 100 100 100 100 47 5 9 29 4 30 47 37 28 34 70 100 100 100 100 100 100
73 100 72 96 100 4 0 97 79 69 100 89 39 7 99 100 79 36 39 78 12 5 5 5 60 100 100 100 100 100 100 100 52 12 17 5 11 5 29 56 68 100 100 100 100 100 100 100 100
100 2 6 14 18 2 2 10 0 100 100 100 71 16 66 100 100 51 94 77 91 78 95 100 93 34 5 73 100 100 53 6 35 25 100 100 5 6 74 41 50 62 85 98 100 97 78 100 100
81 4 0 6 5 5 34 4 95 100 30 32 31 4 11 26 100 100 100 82 76 90 100 100 95 36 7 5 100 100 83 93 88 50 41 30 35 10 6 26 55 74 100 100 97 100 99 100 100
15 29 1 54 59 57 78 69 100 81 100 90 33 64 33 100 100 100 100 48 11 90 100 100 100 100 100 15 29 51 5 18 6 97 100 52 96 5 5 13 46 71 76 100 100 100 100 97 100
6 24 61 92 100 100 100 100 100 100 100 100 100 100 100 100 98 38 48 62 100 100 100 100 100 100 100 100 6 40 5 29 81 100 100 100 100 14 51 6 60 95 100 84 100 100 100 100 100
100 100 100 100 100 100 100 100 100 100 100 100 100 100 100 100 98 100 100 100 100 100 100 100 100 100 100 96 100 95 100 97 82 100 100 100 100 23 12 4 1 89 100 100 100 100 100 100 100

GFSSGP_prec_cloud_114.txt.gz
Cloud_Cover
0 0 0 0 0 0 0 6 5 0 0 0 0 0 0 0 0 0 0 0 0 0 0 0 0 0 0 0 0 0 0 0 0 0 0 0 0 0 0 0 0 0 0 0 0 0 10 0 0
4 2 4 0 0 0 0 82 29 2 0 0 0 0 1 0 0 0 0 0 0 0 0 0 0 0 0 0 0 0 0 0 0 0 0 0 0 0 0 0 0 0 0 0 0 8 8 0 5
5 4 4 0 0 2 2 100 58 2 0 1 21 5 7 8 0 0 0 0 0 0 0 0 0 0 0 0 5 5 1 0 0 0 0 0 0 0 0 0 0 0 0 0 23 21 1 2 70
0 0 0 0 1 84 99 100 100 14 5 5 58 38 0 13 8 0 0 0 2 7 5 43 5 3 0 0 5 7 10 0 0 0 0 0 0 0 0 0 0 0 0 0 4 24 0 5 91
0 0 0 0 1 7 99 100 100 18 5 10 12 7 4 2 31 0 0 2 5 30 100 100 83 1 0 0 15 7 6 14 0 0 0 0 0 0 0 0 0 0 0 0 0 94 17 0 82
0 0 0 0 0 3 84 100 100 77 17 2 3 21 4 1 1 16 30 5 73 100 76 29 34 5 4 6 16 5 49 38 0 0 0 0 0 0 0 0 0 0 0 0 2 3 4 5 88
0 0 0 0 0 0 25 73 100 100 99 15 5 5 17 98 82 80 100 84 100 100 28 71 100 86 10 16 17 20 84 5 6 0 0 0 0 0 0 0 0 1 0 0 0 0 5 5 44
0 0 2 3 7 35 100 49 51 100 12 5 71 13 55 100 100 100 84 62 100 100 100 100 100 100 72 43 23 86 100 34 0 5 9 0 0 0 0 0 0 0 5 0 0 0 3 4 5
2 0 0 0 2 61 38 52 7 37 5 19 77 11 5 7 100 100 100 100 100 25 100 100 98 86 100 56 57 100 100 83 0 0 10 19 3 0 0 0 0 0 0 0 0 4 5 3 8
0 0 0 0 0 2 58 9 51 5 2 3 15 94 100 49 5 75 75 100 100 87 71 100 100 100 100 86 84 100 100 98 4 2 10 26 14 7 0 0 0 0 0 0 0 18 65 41 23
0 0 0 0 0 0 5 100 89 2 0 0 0 34 41 80 98 99 82 52 100 100 100 100 100 100 100 100 100 100 100 100 55 30 32 30 26 27 18 18 6 6 0 30 39 66 36 47 17
1 0 0 0 0 0 0 4 99 79 0 0 0 0 0 4 44 76 5 8 100 100 100 100 100 100 100 100 100 100 100 100 70 47 30 46 48 40 28 19 19 3 6 83 98 98 23 5 20
59 5 4 0 0 0 0 0 0 24 2 0 0 0 0 0 0 5 2 0 90 100 100 83 100 100 89 24 100 100 100 100 98 28 29 33 48 44 17 18 15 15 19 51 100 64 27 14 13
0 0 0 0 0 0 0 0 0 0 6 83 4 0 0 0 0 0 0 0 32 98 100 68 87 72 100 90 57 100 100 100 100 67 6 16 8 10 20 26 19 18 7 28 36 38 29 16 14
0 0 0 0 0 0 0 0 0 0 100 100 42 3 0 0 0 0 2 4 9 57 100 100 100 62 40 96 41 100 100 100 100 100 30 6 60 5 8 16 39 12 18 22 34 35 35 34 17
0 0 0 0 0 0 0 0 0 0 32 100 91 4 0 5 2 0 0 85 13 84 10 94 99 100 69 87 80 99 100 100 100 100 100 92 78 5 47 59 14 22 38 25 44 83 81 42 50
0 0 0 0 0 0 0 0 0 0 0 98 100 8 8 94 5 0 0 1 94 14 5 19 100 97 100 22 27 98 100 100 100 100 100 100 80 8 100 78 13 12 40 57 72 100 100 100 100
0 0 0 0 0 0 0 0 0 0 0 2 100 89 99 100 74 37 8 0 0 36 12 0 8 99 100 96 46 47 74 100 100 100 100 100 30 33 100 91 41 17 100 97 88 100 100 100 100
0 0 0 0 0 0 0 0 0 0 0 0 51 100 100 100 100 100 100 63 1 5 29 0 0 98 100 100 100 100 5 79 100 100 100 73 9 76 58 55 20 40 100 100 100 100 100 100 100
5 4 0 0 0 0 4 3 5 10 2 1 5 78 98 100 100 100 100 100 97 33 0 2 0 25 100 100 100 100 18 45 100 93 70 9 65 10 83 42 18 45 100 100 97 100 100 100 100
5 5 0 0 0 0 98 1 1 0 0 0 0 5 72 100 100 99 86 7 3 4 5 5 5 76 100 100 100 100 100 100 100 100 100 9 47 94 72 69 20 41 36 100 100 85 100 100 100
88 0 1 0 0 0 100 51 2 19 0 1 1 5 100 100 100 37 27 5 5 2 5 5 8 100 100 100 100 100 10 27 100 100 100 92 100 100 100 84 22 32 58 82 100 67 100 100 100
38 91 5 2 1 10 28 70 0 6 3 8 100 100 98 96 53 37 5 5 5 6 14 55 36 89 94 56 100 93 62 95 69 100 100 100 100 100 83 19 27 36 36 15 44 81 100 100 100
82 11 5 56 15 5 3 82 0 87 5 96 88 100 64 90 87 12 34 16 97 100 100 5 6 10 86 100 100 100 100 100 100 100 100 100 100 97 95 44 35 30 28 13 18 87 100 100 97
9 69 26 100 99 6 100 24 95 64 100 49 91 76 65 5 99 100 100 100 99 92 8 5 10 5 22 92 46 100 100 100 100 100 100 100 100 88 64 83 78 69 34 61 48 99 100 91 92
99 64 44 46 55 100 98 44 29 97 100 100 45 74 83 100 61 100 100 100 98 99 34 5 86 100 98 36 97 59 100 100 100 100 100 98 36 77 100 99 89 100 57 85 100 100 100 84 100
97 20 58 73 89 5 49 31 53 100 100 100 100 100 100 86 78 75 98 100 100 97 34 34 100 100 100 100 100 42 98 100 100 80 100 100 65 32 100 100 100 90 97 92 100 100 100 100 100
98 44 4 64 100 89 5 78 99 100 100 100 100 100 100 100 100 100 100 100 97 100 100 100 100 100 100 100 75 17 10 100 74 100 100 77 90 98 100 100 100 100 99 100 100 100 100 100 100
65 3 18 30 49 62 89 100 100 100 100 100 100 100 100 100 100 100 100 100 100 100 88 100 100 100 100 100 100 53 5 86 93 97 100 100 100 100 100 100 100 100 100 97 100 100 93 100 100
95 5 2 24 100 100 100 100 100 100 100 100 100 100 100 100 100 100 100 100 100 100 100 100 100 100 100 100 100 100 70 70 74 100 100 100 100 100 100 100 100 100 100 100 100 100 100 100 100

GFSSGP_prec_cloud_117.txt.gz
Cloud_Cover
0 0 0 0 0 0 0 2 60 91 0 0 0 0 0 0 0 0 0 0 0 0 9 0 0 0 0 0 0 0 0 0 0 0 0 0 0 0 0 0 0 0 0 3 0 0 0 0 0
0 0 0 2 2 0 0 85 100 28 0 1 0 0 0 0 0 0 3 5 0 0 8 4 0 0 0 0 0 0 0 0 0 0 0 0 0 0 4 1 0 0 0 10 3 10 0 0 0
0 5 44 2 2 1 2 53 100 27 5 5 2 0 0 0 0 20 13 11 3 0 1 1 0 0 0 3 0 0 0 0 0 0 0 0 0 0 7 0 0 0 0 11 39 89 4 0 0
0 0 0 0 0 0 0 22 100 66 5 4 0 0 0 0 0 3 32 27 14 0 0 1 0 5 6 97 20 0 0 0 0 0 0 0 0 0 0 0 0 0 0 6 78 12 0 2 1
0 0 0 0 0 0 0 4 26 83 7 82 63 13 0 5 5 57 98 70 5 10 3 3 5 8 16 3 5 17 1 0 0 0 0 0 0 0 0 0 0 0 0 0 0 0 0 0 1
1 0 0 0 0 4 2 0 2 10 4 6 0 2 3 2 4 4 99 41 90 96 24 84 33 3 5 5 18 30 10 0 0 5 4 0 0 0 0 0 0 0 0 0 0 0 0 4 1
5 4 0 0 0 1 16 0 1 1 0 1 3 2 0 4 90 14 86 65 67 100 100 100 30 13 10 21 100 95 5 7 0 5 5 0 0 0 0 0 0 0 0 0 0 2 1 5 5
58 19 0 0 4 0 5 0 0 5 5 0 0 0 34 4 31 96 54 100 100 100 100 100 56 57 54 100 100 100 38 22 11 7 5 5 0 0 0 0 0 0 0 0 0 1 5 2 59
50 0 4 5 48 22 89 22 3 2 5 2 0 1 0 26 48 94 100 100 100 100 100 100 100 79 97 100 100 44 14 14 12 11 9 22 5 0 0 0 0 0 0 0 0 2 0 15 99
55 36 7 14 22 3 5 8 5 4 0 0 0 0 0 5 100 91 95 100 100 100 100 100 100 100 89 100 100 100 100 93 74 42 37 56 25 17 0 0 0 2 0 0 0 0 15 53 81
25 6 5 2 21 5 5 2 5 1 0 0 0 0 0 0 24 100 100 100 100 100 100 100 100 100 100 74 100 100 100 100 99 15 40 94 40 36 29 33 27 12 0 27 31 59 58 29 32
4 60 83 100 19 5 19 4 0 0 0 0 0 0 0 0 0 31 100 100 100 100 100 100 100 100 100 89 100 100 100 100 96 48 38 95 84 62 44 31 31 30 33 38 41 93 31 11 0
100 100 100 100 96 100 68 36 97 52 4 0 0 0 0 0 0 0 15 100 100 100 100 100 87 100 100 100 100 82 100 100 100 100 82 100 100 99 65 33 31 27 36 82 99 100 31 16 3
100 100 54 3 2 0 0 0 5 2 3 0 0 4 0 0 0 0 0 0 95 100 100 100 12 5 18 97 100 71 44 100 100 100 100 90 100 100 100 41 40 91 23 81 100 100 34 25 18
100 32 16 36 39 0 0 0 0 0 0 0 0 97 10 0 0 0 3 2 0 6 5 100 14 5 1 15 100 100 100 83 100 100 66 72 100 100 100 87 100 100 26 30 38 45 36 36 28
9 1 0 0 11 3 0 0 0 15 6 0 0 25 100 5 0 0 2 35 4 1 5 63 99 13 4 78 83 32 56 18 100 100 100 89 100 100 100 99 94 52 80 36 44 76 100 58 34
0 0 0 0 0 0 0 0 0 0 0 0 0 0 96 54 0 2 0 92 5 5 85 56 96 100 28 15 13 11 37 36 100 100 100 100 100 100 100 87 100 100 99 83 79 98 98 100 90
0 0 0 0 0 0 0 0 0 0 0 0 0 0 83 97 4 24 38 89 27 54 5 5 100 66 90 88 15 36 85 32 96 98 100 100 100 100 55 32 95 100 98 100 100 100 100 100 100
0 5 5 2 0 0 0 0 0 0 0 0 0 0 3 100 5 100 100 100 100 78 0 0 5 64 23 77 100 100 100 83 56 99 100 100 100 100 40 46 96 81 88 100 100 100 100 100 100
0 0 0 0 0 0 0 0 0 0 0 0 0 0 0 75 100 100 100 100 96 4 5 0 7 9 69 100 100 100 100 100 38 54 100 100 81 68 55 97 100 88 100 100 100 100 100 100 100
2 0 0 3 4 5 0 0 0 0 0 0 0 0 0 0 97 100 100 97 4 2 5 3 6 94 73 100 66 92 100 62 98 100 100 100 100 100 100 100 96 99 100 100 100 100 85 100 100
5 0 3 30 100 46 0 0 0 0 0 0 0 0 0 0 10 100 100 81 5 5 5 5 7 96 98 90 89 99 80 84 100 100 100 100 91 91 100 100 100 100 100 100 94 100 99 73 100
0 0 28 100 88 5 0 2 0 11 72 100 31 5 1 0 45 86 100 100 100 26 7 88 18 59 100 100 85 80 100 100 99 95 100 100 100 92 73 100 100 100 99 100 100 100 100 96 100
3 0 97 100 77 70 0 0 95 66 100 100 100 93 35 70 5 5 41 100 100 100 100 100 100 68 100 100 100 97 100 100 100 100 100 100 100 100 100 100 100 100 99 100 100 100 99 100 100
1 7 55 32 5 23 0 6 100 100 100 100 100 100 100 100 100 96 92 69 100 100 100 100 100 100 100 100 100 100 100 100 100 100 100 100 100 100 100 100 100 100 98 80 55 99 100 100 100
0 54 99 97 100 94 88 100 100 100 100 100 100 100 100 100 100 100 100 100 100 100 100 100 100 100 100 100 100 100 100 100 100 100 100 100 92 76 100 100 100 100 97 44 76 100 100 100 100
96 100 100 100 100 100 100 100 100 100 100 100 100 100 100 100 100 100 100 100 100 100 100 100 100 100 100 100 100 100 100 100 100 100 100 100 100 100 100 100 100 100 93 87 100 100 100 100 100
100 68 99 100 100 100 100 100 100 100 100 100 100 100 100 100 100 100 100 100 100 100 100 100 100 100 100 100 100 100 100 99 94 97 100 100 100 100 91 100 100 100 93 100 100 100 68 100 100
100 93 86 100 100 100 100 100 100 100 100 100 100 100 100 100 100 100 100 100 100 100 100 100 96 100 100 100 100 100 100 84 64 89 83 100 100 90 100 99 100 100 100 100 100 100 40 100 100
100 6 86 100 100 100 100 100 100 100 100 100 100 100 100 100 100 100 100 100 100 100 100 100 100 100 100 100 100 100 100 100 100 100 30 36 53 56 78 100 100 100 100 100 99 64 88 100 100

GFSSGP_prec_cloud_120.txt.gz
Cloud_Cover
0 0 0 0 0 2 61 83 100 92 1 0 0 0 0 0 0 0 0 0 0 0 1 2 17 5 0 0 0 0 0 0 0 0 0 0 0 0 0 0 0 0 0 3 0 0 0 0 0
0 0 0 0 0 0 1 5 3 2 4 3 0 0 0 0 0 0 0 0 0 0 1 16 20 7 0 0 0 0 5 0 0 0 0 0 0 0 0 0 0 0 0 12 8 1 0 0 0
0 0 0 0 0 3 20 20 39 7 1 0 3 0 0 0 0 0 0 0 0 12 29 19 14 3 4 0 0 2 4 12 0 0 0 0 0 1 5 0 0 0 0 8 97 21 0 0 0
0 0 0 0 0 1 2 20 6 48 11 2 3 0 0 0 0 0 0 0 0 5 94 12 4 5 1 0 0 1 0 0 0 0 0 0 7 8 5 0 0 13 0 89 100 49 0 0 0
0 0 0 0 0 1 2 0 4 5 1 0 0 0 0 0 0 0 4 0 0 25 100 81 8 41 5 5 5 4 0 0 0 0 0 0 12 7 0 0 0 0 1 0 0 0 0 0 0
0 0 0 0 0 0 3 0 0 5 0 0 0 0 0 0 0 0 1 0 5 26 100 100 62 100 71 5 35 5 1 5 4 4 0 0 3 5 0 0 0 0 0 0 0 0 0 0 0
0 2 0 0 0 3 28 5 0 0 0 0 0 0 0 0 0 0 4 5 15 47 100 100 100 100 75 12 93 11 5 5 6 94 0 0 0 4 5 0 0 0 0 0 0 0 0 1 1
0 0 0 5 30 95 92 62 0 0 0 4 0 0 0 0 0 0 9 23 35 88 100 100 100 100 99 100 100 100 93 5 6 5 4 0 0 0 5 5 0 0 0 0 0 0 0 0 0
6 0 3 4 69 79 22 7 5 1 2 6 3 0 0 0 0 3 23 48 75 68 100 100 100 88 98 100 100 100 100 85 100 78 5 15 6 2 5 34 4 0 0 0 0 1 2 30 20
5 1 5 89 100 100 100 50 94 9 5 50 5 3 0 0 0 0 0 7 9 100 100 100 100 100 100 100 100 67 75 100 100 100 81 35 25 20 7 60 5 4 0 0 0 0 7 100 100
99 51 100 100 100 100 100 100 100 92 83 13 16 3 0 0 9 0 0 0 6 15 100 100 100 100 100 100 100 100 100 100 100 100 97 85 39 32 35 58 41 17 4 37 30 51 99 63 80
6 89 95 68 39 5 11 5 94 67 92 100 100 47 2 1 0 0 0 0 0 16 10 100 100 100 100 99 100 100 100 100 100 100 98 100 98 82 47 49 68 89 34 37 63 98 53 24 18
13 66 36 37 4 8 6 2 17 40 98 100 100 86 10 2 0 0 0 0 0 0 8 18 100 100 98 100 100 100 100 100 100 100 92 100 100 100 79 37 100 100 98 65 48 84 41 25 56
4 0 3 19 71 87 92 82 75 91 100 100 100 18 1 0 0 0 0 0 0 0 0 5 79 100 100 81 90 100 100 100 100 100 100 100 100 100 100 74 100 100 100 97 86 100 48 35 90
51 94 99 97 99 100 100 100 100 100 6 10 92 5 12 0 0 0 0 0 0 0 0 1 5 22 100 28 39 94 100 100 100 100 100 100 100 100 100 100 100 100 100 100 100 100 50 35 75
100 100 82 94 44 8 2 1 82 4 0 11 83 1 61 97 4 0 0 0 0 0 0 0 10 11 32 87 53 92 57 79 84 87 100 100 100 100 97 100 100 100 100 100 99 100 100 64 45
100 46 28 88 61 17 2 0 0 0 0 0 4 0 0 42 1 0 0 0 0 36 20 2 26 100 42 22 68 19 81 42 100 97 51 97 100 82 100 100 96 95 100 100 100 99 97 100 100
0 0 0 0 0 0 0 0 0 0 0 0 0 0 0 2 64 1 2 1 0 0 0 0 12 100 43 8 23 30 72 100 99 37 25 79 92 100 100 100 79 72 99 100 100 100 100 100 98
0 0 0 0 0 0 0 2 0 0 0 0 0 0 4 7 95 98 97 76 68 8 0 0 12 93 53 76 83 99 100 99 99 93 35 79 100 99 99 100 65 98 100 100 100 100 100 100 100
0 0 0 0 0 0 0 0 0 0 0 0 0 0 0 0 2 46 100 99 99 41 5 1 6 100 63 61 96 97 100 98 91 100 88 100 100 56 73 100 98 100 100 100 100 99 100 100 99
0 0 0 0 0 0 0 0 0 0 0 0 0 0 12 0 0 0 95 57 77 5 5 0 77 100 90 36 100 100 89 88 100 100 100 92 47 46 93 100 93 100 100 100 100 98 100 99 100
4 0 0 0 0 3 32 92 0 0 0 24 26 94 81 26 2 0 54 100 100 4 0 62 100 100 100 100 100 100 100 100 100 98 96 60 60 100 100 100 100 100 100 100 90 100 100 100 100
0 0 0 0 0 83 69 69 0 0 5 100 100 100 100 100 98 55 29 82 14 2 11 87 100 100 100 100 100 100 100 99 100 82 96 96 100 100 100 100 100 100 100 100 71 100 100 92 100
0 5 0 0 4 49 6 9 0 100 100 100 100 100 100 100 100 100 100 75 47 89 50 100 100 100 100 100 100 100 100 91 96 88 100 78 100 100 100 100 100 100 100 100 100 100 100 91 87
1 5 53 13 77 100 100 8 95 100 100 100 100 100 100 100 100 100 100 100 100 100 100 100 100 100 100 100 100 100 100 100 100 100 100 100 100 100 100 100 100 100 100 100 100 100 100 100 100
5 20 86 100 100 100 100 98 100 100 100 100 100 100 100 100 100 100 100 100 100 100 100 100 100 100 100 100 100 100 100 100 100 100 100 100 100 100 100 100 100 100 100 100 100 100 100 100 100
44 39 58 20 64 100 100 100 100 100 100 100 100 100 100 100 100 100 100 100 100 100 100 100 100 100 100 100 100 100 100 100 100 100 100 100 100 100 100 100 100 100 100 100 100 100 100 100 100
74 68 100 99 100 100 100 100 100 100 100 100 100 100 100 100 100 100 100 100 100 100 100 100 100 100 100 100 100 100 100 100 100 100 100 100 100 100 100 100 100 100 100 100 100 100 100 100 100
28 44 61 90 100 100 100 100 100 100 100 100 100 100 100 100 100 100 100 100 100 100 100 100 100 100 100 100 100 100 100 100 100 100 98 100 100 100 100 100 100 100 100 100 100 100 100 100 100
76 33 91 88 34 100 100 100 100 100 100 100 100 100 100 100 100 100 100 100 100 100 100 100 100 100 100 100 100 100 100 100 100 100 100 100 100 100 100 100 100 100 100 100 100 100 100 100 100

GFSSGP_prec_cloud_123.txt.gz
Cloud_Cover
0 0 0 0 1 2 66 79 5 2 0 0 0 0 0 0 0 0 0 0 0 0 0 1 2 3 4 0 0 0 0 0 0 0 0 0 0 0 0 0 0 0 0 7 0 0 0 0 0
0 0 0 0 0 0 0 1 3 0 0 0 0 0 0 0 0 0 0 0 0 0 0 0 12 1 1 0 0 0 0 1 0 0 0 0 0 6 0 0 0 0 0 0 0 0 0 0 0
0 0 0 0 0 0 1 0 0 0 0 0 0 0 0 0 0 0 0 0 0 0 0 0 4 0 1 5 3 0 0 0 0 0 0 0 0 7 0 0 0 0 0 0 6 12 0 0 0
0 0 0 0 0 0 0 0 0 0 0 0 0 0 0 0 0 0 0 0 0 0 0 33 10 4 0 5 5 2 5 0 0 0 0 0 0 2 0 3 0 0 0 48 46 10 0 0 0
0 0 0 0 0 0 0 0 0 0 0 0 0 1 2 0 0 0 0 0 0 0 0 2 8 11 1 2 1 5 5 5 5 5 0 0 1 4 2 5 6 0 0 100 20 0 0 0 0
0 0 0 0 2 0 0 0 0 0 0 0 0 0 0 0 0 0 0 0 0 3 10 1 19 18 9 0 5 15 80 36 52 5 1 0 8 6 0 5 4 3 0 0 0 0 0 0 0
0 0 0 0 2 2 29 8 5 2 0 0 0 0 0 0 0 0 1 1 4 25 20 35 99 28 18 5 4 16 100 100 98 5 9 4 1 0 0 0 0 5 4 0 0 0 0 0 0
4 1 0 0 5 3 5 5 5 1 0 0 0 0 0 0 0 2 0 11 21 25 25 27 69 41 45 30 16 70 100 100 91 100 91 5 7 5 0 0 0 3 83 3 0 0 0 0 0
0 0 0 3 2 0 0 5 34 6 12 68 46 50 4 4 0 0 0 10 16 40 28 47 41 51 96 74 45 41 96 100 100 100 97 71 58 41 5 3 4 5 6 29 3 0 0 0 6
0 0 5 0 0 0 0 2 8 36 100 63 72 26 5 5 5 4 4 2 0 3 30 22 27 28 39 100 98 92 98 58 97 100 18 62 100 29 40 5 5 5 85 25 5 5 51 74 61
0 3 4 1 2 5 5 5 19 100 100 100 100 100 10 5 5 1 1 1 5 6 22 41 35 24 29 27 82 100 100 100 100 100 56 55 95 100 52 52 29 31 98 37 23 73 18 95 100
1 3 5 5 5 2 8 20 100 100 100 100 100 100 94 100 25 4 0 0 0 0 0 25 84 64 72 46 74 78 97 100 100 100 100 100 89 100 98 58 71 65 98 40 97 100 100 22 11
54 27 21 18 43 7 1 4 63 100 100 100 100 100 100 94 6 36 5 5 5 17 0 1 92 100 100 93 78 100 97 100 100 100 100 100 94 99 68 61 98 74 70 53 100 100 100 57 5
5 51 9 5 5 10 3 3 1 9 83 100 100 100 100 92 5 12 9 22 64 5 4 0 12 75 100 100 66 100 98 92 100 100 100 100 100 100 100 85 76 100 65 81 100 100 100 82 6
5 5 5 3 6 3 0 0 0 21 4 1 22 74 100 100 100 90 10 6 10 53 13 0 0 33 58 87 58 77 100 100 100 100 100 100 100 100 100 100 96 56 95 97 95 100 100 100 41
5 2 3 5 60 99 98 55 83 37 58 50 29 51 100 100 100 100 100 100 73 66 27 5 0 0 36 10 52 81 100 100 100 100 100 100 100 100 100 100 100 77 100 100 100 100 100 100 42
2 4 4 5 61 70 59 5 12 94 100 100 100 100 100 100 100 100 100 4 0 0 2 0 4 0 2 5 13 40 70 100 100 100 100 100 100 100 100 100 100 100 93 100 100 100 100 100 99
0 0 0 0 1 2 5 3 1 1 1 24 46 28 17 49 99 66 26 0 0 0 0 0 0 6 3 5 31 38 41 39 62 96 48 98 100 100 100 100 100 100 100 100 100 100 100 96 91
5 5 5 5 5 0 0 0 0 0 0 0 0 0 0 0 0 0 11 0 0 0 0 0 36 10 53 17 13 5 8 23 92 10 38 12 43 100 100 100 100 100 100 100 100 100 100 100 90
0 0 0 0 0 0 0 0 0 0 0 0 0 0 0 0 0 0 0 5 0 0 0 0 29 87 71 7 4 2 9 17 92 67 81 93 100 74 43 94 100 100 100 100 100 100 100 100 100
0 0 0 0 0 0 0 0 0 0 0 0 26 11 23 41 15 0 0 5 0 0 4 5 6 76 100 69 81 89 72 68 91 87 100 100 76 35 6 42 66 100 100 100 100 91 100 100 100
0 0 0 0 3 3 1 1 0 2 4 92 100 100 100 100 100 86 40 42 61 62 53 72 5 3 64 100 100 100 58 100 100 100 100 100 100 75 32 52 100 100 100 100 100 100 100 88 100
3 0 0 1 5 5 89 46 5 7 35 99 100 100 100 100 100 100 100 100 100 100 100 92 62 54 85 57 100 100 100 99 100 100 100 100 100 100 100 100 100 100 100 100 100 100 100 97 100
0 1 0 0 5 61 11 94 100 100 100 100 100 100 100 100 100 100 100 100 100 100 100 100 98 98 100 97 99 100 100 100 100 100 100 100 100 100 100 100 100 100 100 100 100 100 83 100 100
4 5 0 2 92 96 85 100 100 100 100 100 100 100 100 100 100 100 100 100 100 100 100 100 100 100 98 100 100 100 100 100 100 100 100 100 100 100 100 100 100 100 100 100 100 100 100 100 100
2 0 8 4 5 56 100 100 100 100 100 100 100 100 100 100 100 100 100 100 100 100 100 100 100 100 100 99 100 100 100 100 100 100 100 100 100 100 100 100 100 100 100 100 100 100 100 100 100
97 0 62 100 77 100 100 100 100 100 100 100 100 100 100 100 100 100 100 100 100 100 100 100 100 100 100 100 100 100 100 100 100 100 100 100 100 100 100 100 100 100 100 100 100 100 100 100 100
25 4 62 92 91 89 100 100 100 100 100 100 100 100 100 100 100 100 100 100 100 100 100 100 100 100 100 100 100 100 100 100 100 100 100 100 100 100 100 100 100 100 100 100 100 100 100 100 100
100 40 45 91 24 91 100 100 100 100 100 100 100 100 100 100 100 100 100 100 100 100 100 100 100 100 100 100 100 100 100 100 100 100 100 100 100 100 100 100 100 100 100 100 100 100 100 100 100
9 22 38 100 100 100 100 100 100 100 100 100 100 100 100 100 100 100 100 100 100 100 100 100 100 100 100 100 100 100 100 100 100 100 100 100 100 100 100 100 100 100 100 100 100 100 100 100 100

GFSSGP_prec_cloud_126.txt.gz
Cloud_Cover
0 0 10 99 100 100 100 86 5 4 1 0 0 0 0 0 2 1 0 0 0 0 0 2 0 0 0 0 0 0 0 0 0 0 0 0 0 0 0 0 0 0 0 0 0 0 0 0 0
0 0 0 0 0 3 37 5 3 1 0 0 0 0 0 0 0 0 0 0 0 0 0 0 3 0 0 0 0 0 7 7 0 0 0 0 0 0 0 0 0 0 0 0 0 0 0 0 0
0 0 0 0 0 0 0 0 0 0 0 0 0 0 0 0 0 0 0 0 0 0 0 0 1 0 0 0 0 0 0 9 1 0 0 0 0 0 0 0 0 0 2 0 0 0 0 0 0
0 0 0 0 0 0 0 0 0 0 0 0 0 0 0 0 0 0 0 0 0 0 0 57 5 0 0 0 0 0 0 0 0 0 1 0 0 0 0 0 0 2 98 5 3 0 0 0 0
0 0 0 0 0 0 0 0 0 0 0 0 0 0 0 0 0 0 0 0 0 0 0 3 6 0 0 1 0 0 4 5 5 5 5 4 0 0 0 0 0 3 14 6 4 0 0 0 0
0 0 0 0 0 0 0 0 0 0 0 0 0 0 0 0 0 0 0 0 0 0 0 3 24 0 0 0 3 1 4 21 5 5 5 4 0 4 0 5 4 0 2 6 91 6 0 0 0
0 0 0 0 0 0 0 0 0 0 0 0 0 0 0 0 0 1 0 0 0 0 19 19 0 1 41 0 4 5 5 28 56 11 5 5 5 5 5 2 4 3 0 3 54 93 0 0 0
5 0 0 0 0 0 0 0 0 0 0 0 0 0 0 0 2 5 3 0 20 14 17 37 13 0 0 0 8 0 5 5 5 89 100 77 12 83 42 5 6 19 3 7 99 82 5 3 0
5 5 1 3 0 0 0 4 5 5 1 1 0 0 0 5 66 88 47 37 8 25 28 57 24 13 3 4 5 53 26 3 59 53 60 99 99 100 87 5 13 5 100 69 38 100 5 5 9
23 14 3 4 2 1 2 5 25 13 2 5 0 0 0 0 7 6 4 3 5 30 29 16 16 2 24 9 23 7 4 0 4 6 91 91 99 100 100 9 25 51 72 100 94 99 24 67 4
100 93 16 5 2 5 4 0 5 5 12 49 31 6 0 0 4 5 2 0 0 10 31 17 36 20 6 0 10 19 0 39 10 24 94 100 100 100 100 61 82 72 15 5 21 96 100 96 52
100 100 100 100 94 52 9 7 5 5 30 8 39 11 5 2 6 7 65 8 6 20 44 63 13 29 11 0 0 1 9 71 25 9 33 37 71 99 100 87 82 100 62 74 27 57 100 100 96
60 79 100 50 24 75 29 26 5 7 67 86 49 71 7 5 5 6 89 100 100 100 100 79 6 20 22 11 0 0 2 45 100 100 98 90 31 53 68 93 98 100 96 94 96 99 100 100 100
76 49 98 100 96 98 69 36 32 9 47 76 77 86 85 87 69 92 100 100 100 100 100 100 99 64 28 6 29 2 0 2 51 97 99 91 14 36 18 84 95 100 72 100 99 70 100 100 100
79 79 36 26 7 11 24 77 5 38 18 98 100 100 100 100 100 100 100 100 100 100 77 96 100 100 100 100 100 98 60 0 0 30 100 100 46 37 99 56 100 100 100 99 93 98 90 100 100
71 37 5 4 4 8 59 86 1 0 4 5 24 98 100 22 99 100 100 100 93 96 46 48 100 100 100 95 62 100 17 5 0 27 21 100 99 37 100 100 100 100 100 100 100 93 100 100 100
4 11 1 3 0 1 0 4 0 0 0 0 2 5 84 100 100 100 100 20 28 12 91 88 99 52 100 100 12 48 5 65 4 4 0 35 100 93 71 100 100 91 98 100 100 100 100 100 100
0 0 0 0 0 0 0 0 0 0 0 0 0 0 20 100 100 100 100 100 100 57 80 100 100 78 95 28 31 3 5 12 3 9 0 0 90 100 100 100 100 100 100 100 100 97 100 100 100
0 0 0 0 0 0 0 0 0 0 0 0 0 0 0 0 17 100 100 100 100 100 100 100 87 47 100 19 5 0 0 5 0 6 0 0 84 100 100 60 88 100 100 100 100 98 100 100 100
0 0 0 0 0 0 0 0 0 0 47 3 0 1 4 3 0 0 2 88 100 100 100 20 11 24 20 34 5 0 0 3 2 0 0 0 2 76 100 85 100 100 100 100 100 100 100 100 100
0 0 0 0 0 0 0 0 0 0 63 19 35 54 89 100 97 60 5 1 4 19 58 5 13 26 26 72 89 20 0 2 7 2 3 5 44 44 92 91 61 54 22 91 100 100 100 100 98
0 0 0 0 0 0 2 1 3 5 52 61 97 100 100 100 100 100 100 100 98 96 90 58 28 64 98 94 100 86 99 95 26 8 5 26 21 5 64 92 48 42 100 31 100 100 100 100 100
0 0 0 0 0 0 1 6 100 14 29 53 100 100 100 100 100 100 100 100 100 100 100 100 100 100 100 100 92 100 100 100 100 98 85 100 100 75 97 100 42 55 100 98 100 100 100 100 100
0 0 1 4 5 2 0 20 29 82 100 100 100 100 100 99 100 100 100 100 100 100 100 100 100 100 100 100 100 100 100 100 100 99 100 100 100 100 100 100 100 100 100 100 100 100 100 100 100
1 5 4 4 78 4 30 85 96 94 100 100 100 100 100 100 100 100 100 100 100 100 100 100 100 100 100 100 100 100 100 100 100 90 100 100 100 100 100 100 100 100 100 100 100 100 100 98 100
5 27 6 5 5 52 23 32 100 100 99 100 100 100 100 100 100 100 100 100 100 100 100 100 100 100 100 100 100 100 100 100 100 100 100 100 100 100 100 100 100 100 100 100 100 100 100 100 100
96 86 86 27 31 95 43 99 100 91 100 100 100 100 100 100 100 100 100 100 100 100 100 100 100 100 100 100 100 100 87 100 100 100 100 100 98 100 100 100 100 100 100 100 100 100 100 100 100
65 92 100 96 92 77 76 92 98 72 100 100 100 100 100 100 100 100 100 100 100 100 100 100 100 100 100 100 100 100 100 100 100 94 100 92 100 100 100 100 100 100 100 100 100 100 100 100 100
100 96 90 94 95 99 96 100 100 100 100 100 100 100 100 100 100 100 100 100 100 100 100 100 100 100 100 100 100 100 100 100 100 100 100 100 100 100 100 100 100 100 100 100 100 100 100 100 100
91 74 100 100 100 100 35 100 100 90 100 100 100 100 100 100 100 100 100 100 100 100 100 100 100 100 100 100 100 100 100 100 100 100 100 100 100 100 100 100 100 100 100 100 100 100 100 100 100

GFSSGP_prec_cloud_129.txt.gz
Cloud_Cover
0 0 0 0 0 33 92 92 98 100 84 18 2 11 20 2 1 1 1 0 0 0 0 1 0 0 0 0 0 0 0 0 0 0 0 0 0 0 0 0 0 0 0 0 0 0 0 0 0
0 0 0 0 0 0 1 0 55 78 100 87 62 60 8 6 24 9 2 2 2 0 0 0 0 0 0 0 0 0 0 0 0 0 0 0 0 0 0 0 0 0 0 0 0 0 0 0 0
0 0 0 0 0 0 0 0 0 0 0 1 2 2 1 8 19 1 0 0 0 0 0 0 0 0 0 0 0 0 0 0 0 0 0 0 0 0 0 0 0 0 0 0 0 3 0 0 0
0 0 0 0 0 0 0 0 0 0 0 0 0 0 0 0 0 0 0 0 0 0 0 61 0 0 0 0 0 0 0 0 0 0 0 0 0 0 2 3 0 0 0 0 1 5 5 0 0
0 0 0 0 0 0 0 0 0 0 0 0 0 0 0 0 0 0 0 0 0 0 16 0 0 0 0 0 0 0 0 0 0 0 0 2 4 2 0 5 0 0 1 0 0 5 30 5 2
0 0 0 0 0 1 0 0 0 0 0 0 0 0 0 0 0 0 0 0 0 13 26 7 20 0 0 0 0 0 0 0 0 0 0 5 4 12 7 0 0 0 4 3 2 0 4 61 5
4 3 0 0 0 0 0 0 0 0 0 0 0 0 0 0 0 0 0 0 5 3 19 71 18 1 44 0 0 0 0 0 0 1 0 3 5 5 5 4 5 5 5 5 5 21 7 98 5
40 8 10 5 5 0 0 54 6 0 3 0 0 0 0 0 0 0 0 0 0 32 47 100 80 15 0 1 8 0 0 0 0 0 5 5 7 9 98 88 59 100 94 50 98 100 66 58 25
67 74 37 16 5 5 5 20 6 5 5 2 0 0 0 0 0 0 0 0 0 10 56 100 100 70 8 1 4 53 26 1 9 16 13 68 5 38 100 90 100 100 84 57 100 100 100 13 100
100 100 100 84 60 24 80 10 33 4 13 18 4 2 0 0 0 0 0 0 0 5 44 56 100 98 62 16 13 0 0 0 0 0 0 0 3 22 100 88 100 100 99 66 100 100 91 78 42
100 100 100 100 100 100 100 80 76 97 100 96 100 44 3 4 0 0 0 0 4 5 5 51 98 100 91 13 15 13 2 2 2 4 6 5 27 99 94 99 100 100 99 13 100 100 57 14 73
100 100 100 100 100 100 100 100 100 100 100 100 100 100 100 100 78 10 6 3 2 5 9 79 100 100 37 4 6 4 4 3 2 12 1 8 10 52 89 100 95 100 77 26 100 100 16 6 21
98 100 100 100 79 79 99 100 100 100 100 100 100 100 100 100 100 100 100 64 100 100 90 68 90 95 83 98 100 66 5 3 0 0 0 15 4 9 12 34 54 86 100 95 100 92 50 92 100
100 100 100 96 100 100 100 100 100 100 100 100 100 100 100 100 94 100 100 100 94 34 65 47 66 100 94 100 100 100 22 5 0 35 14 0 0 16 18 45 13 83 39 67 100 100 100 100 86
81 99 89 24 57 41 21 97 9 24 58 93 100 100 100 100 100 100 100 100 100 100 100 100 100 100 100 100 100 100 100 36 36 96 21 69 2 0 0 24 75 20 10 71 99 100 100 100 100
67 8 5 5 37 38 37 5 5 5 5 5 5 5 5 99 100 100 100 99 100 100 100 100 100 100 100 100 100 100 100 100 100 68 24 100 51 4 0 2 5 47 24 38 100 100 90 95 100
4 5 0 1 0 2 8 4 3 2 0 0 0 0 0 0 39 86 99 100 100 100 99 100 98 100 100 100 100 100 99 100 100 77 16 73 100 12 36 32 33 94 34 22 99 100 100 24 71
5 2 5 0 0 0 0 0 0 0 0 0 0 2 3 3 2 1 65 68 72 100 98 3 75 100 100 100 100 74 5 75 100 100 87 8 91 80 17 84 100 80 31 79 58 99 95 93 42
4 0 0 0 0 0 0 0 0 0 0 0 0 0 0 0 5 0 0 0 5 5 88 100 80 100 98 100 78 100 14 100 100 100 100 5 5 89 82 48 96 100 100 100 100 100 100 92 89
0 0 0 0 0 0 0 0 0 0 0 0 0 3 5 3 10 10 12 2 40 31 20 95 98 100 100 100 100 100 100 100 100 100 24 5 3 4 99 95 2 100 100 100 100 100 100 98 73
0 0 0 0 0 0 0 0 0 1 75 4 5 5 5 18 81 92 67 80 92 84 32 12 100 100 100 100 100 100 100 69 5 3 47 94 95 93 67 96 0 87 99 62 69 100 100 98 34
0 0 0 0 0 0 0 0 4 0 7 4 5 8 50 87 100 100 100 100 100 100 99 99 100 72 36 31 51 100 100 44 93 98 100 100 100 100 100 72 20 33 20 98 98 53 100 100 99
0 0 0 0 0 0 0 25 98 0 5 5 56 71 100 100 100 100 100 100 100 100 100 100 100 100 99 60 100 81 100 99 100 100 100 100 100 100 100 92 46 6 1 100 30 12 100 100 81
0 1 2 1 0 0 90 10 53 55 98 92 74 93 100 100 100 100 99 98 100 100 100 100 100 100 98 93 100 90 100 100 100 100 100 100 100 100 100 100 100 88 39 36 12 50 98 100 100
4 13 29 11 48 30 100 19 50 100 100 100 100 100 100 100 99 100 100 99 100 100 100 100 100 100 100 93 100 100 100 100 100 100 100 100 100 100 100 100 99 99 100 51 83 66 70 100 100
6 54 63 5 1 9 2 26 98 62 100 99 100 100 86 92 98 100 100 100 100 100 100 100 100 100 100 100 100 100 100 100 100 100 100 100 100 100 100 100 100 87 100 100 100 100 98 100 100
88 58 74 45 5 55 19 75 73 90 86 100 100 87 100 100 100 100 100 100 100 100 100 100 100 100 100 100 100 100 100 100 100 100 100 100 100 100 100 100 100 100 100 100 100 100 100 100 100
50 86 92 94 73 56 74 50 89 57 100 100 100 98 100 100 95 100 100 100 100 100 100 100 100 100 100 100 100 99 100 100 100 100 100 100 100 100 100 100 100 98 56 100 100 100 100 100 100
90 50 73 95 96 87 78 70 98 100 100 100 100 100 100 100 100 100 100 100 100 100 100 100 100 100 100 100 100 100 100 100 100 100 100 100 100 100 100 100 100 100 87 99 89 100 100 100 100
90 92 100 100 96 100 98 82 98 100 100 100 100 100 100 100 100 100 100 100 100 100 100 100 100 100 100 100 100 100 100 100 100 100 100 100 100 100 100 100 100 100 100 100 100 100 100 100 100